owner,sensor,date,latitude,longitude,sea_surface_height_above_sea_level,qcFlag 
TCOON,ioos:station:TCOON:057:1,2019-09-01T00:24:00Z,28.4460,-96.3961,3.771,11111222 
TCOON,ioos:station:TCOON:057:1,2019-09-01T01:24:00Z,28.4460,-96.3961,3.74,11111222 
TCOON,ioos:station:TCOON:057:1,2019-09-01T02:24:00Z,28.4460,-96.3961,3.729,11111222 
TCOON,ioos:station:TCOON:057:1,2019-09-01T03:24:00Z,28.4460,-96.3961,3.705,11111222 
TCOON,ioos:station:TCOON:057:1,2019-09-01T04:24:00Z,28.4460,-96.3961,3.675,11111222 
TCOON,ioos:station:TCOON:057:1,2019-09-01T05:24:00Z,28.4460,-96.3961,3.658,11111222 
TCOON,ioos:station:TCOON:057:1,2019-09-01T06:24:00Z,28.4460,-96.3961,3.635,11111222 
TCOON,ioos:station:TCOON:057:1,2019-09-01T07:24:00Z,28.4460,-96.3961,3.637,11111222 
TCOON,ioos:station:TCOON:057:1,2019-09-01T08:24:00Z,28.4460,-96.3961,3.642,11111222 
TCOON,ioos:station:TCOON:057:1,2019-09-01T09:24:00Z,28.4460,-96.3961,3.673,11111222 
TCOON,ioos:station:TCOON:057:1,2019-09-01T10:24:00Z,28.4460,-96.3961,3.697,11111222 
TCOON,ioos:station:TCOON:057:1,2019-09-01T11:24:00Z,28.4460,-96.3961,3.715,11111222 
TCOON,ioos:station:TCOON:057:1,2019-09-01T12:24:00Z,28.4460,-96.3961,3.754,11111222 
TCOON,ioos:station:TCOON:057:1,2019-09-01T13:24:00Z,28.4460,-96.3961,3.764,11111222 
TCOON,ioos:station:TCOON:057:1,2019-09-01T14:24:00Z,28.4460,-96.3961,3.784,11111222 
TCOON,ioos:station:TCOON:057:1,2019-09-01T15:24:00Z,28.4460,-96.3961,3.781,11111222 
TCOON,ioos:station:TCOON:057:1,2019-09-01T16:24:00Z,28.4460,-96.3961,3.766,11111222 
TCOON,ioos:station:TCOON:057:1,2019-09-01T17:24:00Z,28.4460,-96.3961,3.745,11111222 
TCOON,ioos:station:TCOON:057:1,2019-09-01T18:24:00Z,28.4460,-96.3961,3.745,11111222 
TCOON,ioos:station:TCOON:057:1,2019-09-01T19:24:00Z,28.4460,-96.3961,3.754,11111222 
TCOON,ioos:station:TCOON:057:1,2019-09-01T20:24:00Z,28.4460,-96.3961,3.781,11111222 
TCOON,ioos:station:TCOON:057:1,2019-09-01T21:24:00Z,28.4460,-96.3961,3.813,11111222 
TCOON,ioos:station:TCOON:057:1,2019-09-01T22:24:00Z,28.4460,-96.3961,3.816,11111222 
TCOON,ioos:station:TCOON:057:1,2019-09-01T23:24:00Z,28.4460,-96.3961,3.843,11111222 
TCOON,ioos:station:TCOON:057:1,2019-09-02T00:24:00Z,28.4460,-96.3961,3.857,11111222 
TCOON,ioos:station:TCOON:057:1,2019-09-02T01:24:00Z,28.4460,-96.3961,3.87,11111222 
TCOON,ioos:station:TCOON:057:1,2019-09-02T02:24:00Z,28.4460,-96.3961,3.858,11111222 
TCOON,ioos:station:TCOON:057:1,2019-09-02T03:24:00Z,28.4460,-96.3961,3.851,11111222 
TCOON,ioos:station:TCOON:057:1,2019-09-02T04:24:00Z,28.4460,-96.3961,3.829,11111222 
TCOON,ioos:station:TCOON:057:1,2019-09-02T05:24:00Z,28.4460,-96.3961,3.805,11111222 
TCOON,ioos:station:TCOON:057:1,2019-09-02T06:24:00Z,28.4460,-96.3961,3.805,11111222 
TCOON,ioos:station:TCOON:057:1,2019-09-02T07:24:00Z,28.4460,-96.3961,3.797,11111222 
TCOON,ioos:station:TCOON:057:1,2019-09-02T08:24:00Z,28.4460,-96.3961,3.817,11111222 
TCOON,ioos:station:TCOON:057:1,2019-09-02T09:24:00Z,28.4460,-96.3961,3.833,11111222 
TCOON,ioos:station:TCOON:057:1,2019-09-02T10:24:00Z,28.4460,-96.3961,3.855,11111222 
TCOON,ioos:station:TCOON:057:1,2019-09-02T11:24:00Z,28.4460,-96.3961,3.88,11111222 
TCOON,ioos:station:TCOON:057:1,2019-09-02T12:24:00Z,28.4460,-96.3961,3.906,11111222 
TCOON,ioos:station:TCOON:057:1,2019-09-02T15:24:00Z,28.4460,-96.3961,3.863,11111222 
TCOON,ioos:station:TCOON:057:1,2019-09-02T16:24:00Z,28.4460,-96.3961,3.835,11111222 
TCOON,ioos:station:TCOON:057:1,2019-09-02T17:24:00Z,28.4460,-96.3961,3.825,11111222 
TCOON,ioos:station:TCOON:057:1,2019-09-02T18:24:00Z,28.4460,-96.3961,3.792,11111222 
TCOON,ioos:station:TCOON:057:1,2019-09-02T19:24:00Z,28.4460,-96.3961,3.799,11111222 
TCOON,ioos:station:TCOON:057:1,2019-09-02T20:24:00Z,28.4460,-96.3961,3.81,11111222 
TCOON,ioos:station:TCOON:057:1,2019-09-02T21:24:00Z,28.4460,-96.3961,3.816,11111222 
TCOON,ioos:station:TCOON:057:1,2019-09-02T22:24:00Z,28.4460,-96.3961,3.851,11111222 
TCOON,ioos:station:TCOON:057:1,2019-09-02T23:24:00Z,28.4460,-96.3961,3.865,11111222 
TCOON,ioos:station:TCOON:057:1,2019-09-03T00:24:00Z,28.4460,-96.3961,3.892,11111222 
TCOON,ioos:station:TCOON:057:1,2019-09-03T01:24:00Z,28.4460,-96.3961,3.934,11111222 
TCOON,ioos:station:TCOON:057:1,2019-09-03T02:24:00Z,28.4460,-96.3961,3.931,11111222 
TCOON,ioos:station:TCOON:057:1,2019-09-03T03:24:00Z,28.4460,-96.3961,3.934,11111222 
TCOON,ioos:station:TCOON:057:1,2019-09-03T04:24:00Z,28.4460,-96.3961,3.944,11111222 
TCOON,ioos:station:TCOON:057:1,2019-09-03T05:24:00Z,28.4460,-96.3961,3.938,11111222 
TCOON,ioos:station:TCOON:057:1,2019-09-03T06:24:00Z,28.4460,-96.3961,3.928,11111222 
TCOON,ioos:station:TCOON:057:1,2019-09-03T07:24:00Z,28.4460,-96.3961,3.935,11111222 
TCOON,ioos:station:TCOON:057:1,2019-09-03T08:24:00Z,28.4460,-96.3961,3.939,11111222 
TCOON,ioos:station:TCOON:057:1,2019-09-03T09:24:00Z,28.4460,-96.3961,3.953,11111222 
TCOON,ioos:station:TCOON:057:1,2019-09-03T10:24:00Z,28.4460,-96.3961,3.969,11111222 
TCOON,ioos:station:TCOON:057:1,2019-09-03T11:24:00Z,28.4460,-96.3961,4.016,11111222 
TCOON,ioos:station:TCOON:057:1,2019-09-03T12:24:00Z,28.4460,-96.3961,3.949,11111222 
TCOON,ioos:station:TCOON:057:1,2019-09-03T13:24:00Z,28.4460,-96.3961,3.973,11111222 
TCOON,ioos:station:TCOON:057:1,2019-09-03T14:30:00Z,28.4460,-96.3961,3.948,11111222 
TCOON,ioos:station:TCOON:057:1,2019-09-03T15:24:00Z,28.4460,-96.3961,3.951,11111222 
TCOON,ioos:station:TCOON:057:1,2019-09-03T16:24:00Z,28.4460,-96.3961,3.882,11111222 
TCOON,ioos:station:TCOON:057:1,2019-09-03T17:30:00Z,28.4460,-96.3961,3.891,11111222 
TCOON,ioos:station:TCOON:057:1,2019-09-03T18:24:00Z,28.4460,-96.3961,3.883,11111222 
TCOON,ioos:station:TCOON:057:1,2019-09-03T19:24:00Z,28.4460,-96.3961,3.847,11111222 
TCOON,ioos:station:TCOON:057:1,2019-09-03T20:24:00Z,28.4460,-96.3961,3.845,11111222 
TCOON,ioos:station:TCOON:057:1,2019-09-03T21:24:00Z,28.4460,-96.3961,3.861,11111222 
TCOON,ioos:station:TCOON:057:1,2019-09-03T22:24:00Z,28.4460,-96.3961,3.884,11111222 
TCOON,ioos:station:TCOON:057:1,2019-09-03T23:24:00Z,28.4460,-96.3961,3.922,11111222 
TCOON,ioos:station:TCOON:057:1,2019-09-04T00:24:00Z,28.4460,-96.3961,3.936,11111222 
TCOON,ioos:station:TCOON:057:1,2019-09-04T01:24:00Z,28.4460,-96.3961,3.973,11111222 
TCOON,ioos:station:TCOON:057:1,2019-09-04T02:24:00Z,28.4460,-96.3961,3.994,11111222 
TCOON,ioos:station:TCOON:057:1,2019-09-04T03:24:00Z,28.4460,-96.3961,4.015,11111222 
TCOON,ioos:station:TCOON:057:1,2019-09-04T04:24:00Z,28.4460,-96.3961,4.041,11111222 
TCOON,ioos:station:TCOON:057:1,2019-09-04T05:24:00Z,28.4460,-96.3961,4.064,11111222 
TCOON,ioos:station:TCOON:057:1,2019-09-04T06:24:00Z,28.4460,-96.3961,4.071,11111222 
TCOON,ioos:station:TCOON:057:1,2019-09-04T07:24:00Z,28.4460,-96.3961,4.079,11111222 
TCOON,ioos:station:TCOON:057:1,2019-09-04T08:24:00Z,28.4460,-96.3961,4.088,11111222 
TCOON,ioos:station:TCOON:057:1,2019-09-04T09:24:00Z,28.4460,-96.3961,4.096,11111222 
TCOON,ioos:station:TCOON:057:1,2019-09-04T10:24:00Z,28.4460,-96.3961,4.092,11111222 
TCOON,ioos:station:TCOON:057:1,2019-09-04T11:24:00Z,28.4460,-96.3961,4.103,11111222 
TCOON,ioos:station:TCOON:057:1,2019-09-04T12:24:00Z,28.4460,-96.3961,4.09,11111222 
TCOON,ioos:station:TCOON:057:1,2019-09-04T13:24:00Z,28.4460,-96.3961,4.072,11111222 
TCOON,ioos:station:TCOON:057:1,2019-09-04T14:30:00Z,28.4460,-96.3961,4.052,11111222 
TCOON,ioos:station:TCOON:057:1,2019-09-04T15:24:00Z,28.4460,-96.3961,4.034,11111222 
TCOON,ioos:station:TCOON:057:1,2019-09-04T16:24:00Z,28.4460,-96.3961,4.022,11111222 
TCOON,ioos:station:TCOON:057:1,2019-09-04T17:30:00Z,28.4460,-96.3961,3.974,11111222 
TCOON,ioos:station:TCOON:057:1,2019-09-04T18:24:00Z,28.4460,-96.3961,3.956,11111222 
TCOON,ioos:station:TCOON:057:1,2019-09-04T19:24:00Z,28.4460,-96.3961,3.909,11111222 
TCOON,ioos:station:TCOON:057:1,2019-09-04T20:24:00Z,28.4460,-96.3961,3.885,11111222 
TCOON,ioos:station:TCOON:057:1,2019-09-04T21:24:00Z,28.4460,-96.3961,3.88,11111222 
TCOON,ioos:station:TCOON:057:1,2019-09-04T22:24:00Z,28.4460,-96.3961,3.841,11111222 
TCOON,ioos:station:TCOON:057:1,2019-09-04T23:24:00Z,28.4460,-96.3961,3.869,11111222 
TCOON,ioos:station:TCOON:057:1,2019-09-05T00:24:00Z,28.4460,-96.3961,3.891,11111222 
TCOON,ioos:station:TCOON:057:1,2019-09-05T01:24:00Z,28.4460,-96.3961,3.916,11111222 
TCOON,ioos:station:TCOON:057:1,2019-09-05T02:24:00Z,28.4460,-96.3961,3.948,11111222 
TCOON,ioos:station:TCOON:057:1,2019-09-05T03:24:00Z,28.4460,-96.3961,3.985,11111222 
TCOON,ioos:station:TCOON:057:1,2019-09-05T04:24:00Z,28.4460,-96.3961,3.983,11111222 
TCOON,ioos:station:TCOON:057:1,2019-09-05T05:24:00Z,28.4460,-96.3961,4.015,11111222 
TCOON,ioos:station:TCOON:057:1,2019-09-05T06:24:00Z,28.4460,-96.3961,4.011,11111222 
TCOON,ioos:station:TCOON:057:1,2019-09-05T07:24:00Z,28.4460,-96.3961,4.03,11111222 
TCOON,ioos:station:TCOON:057:1,2019-09-05T08:24:00Z,28.4460,-96.3961,4.044,11111222 
TCOON,ioos:station:TCOON:057:1,2019-09-05T09:24:00Z,28.4460,-96.3961,4.04,11111222 
TCOON,ioos:station:TCOON:057:1,2019-09-05T10:24:00Z,28.4460,-96.3961,4.021,11111222 
TCOON,ioos:station:TCOON:057:1,2019-09-05T11:24:00Z,28.4460,-96.3961,4.011,11111222 
TCOON,ioos:station:TCOON:057:1,2019-09-05T12:24:00Z,28.4460,-96.3961,3.999,11111222 
TCOON,ioos:station:TCOON:057:1,2019-09-05T13:24:00Z,28.4460,-96.3961,3.99,11111222 
TCOON,ioos:station:TCOON:057:1,2019-09-05T14:24:00Z,28.4460,-96.3961,3.962,11111222 
TCOON,ioos:station:TCOON:057:1,2019-09-05T15:24:00Z,28.4460,-96.3961,3.937,11111222 
TCOON,ioos:station:TCOON:057:1,2019-09-05T16:24:00Z,28.4460,-96.3961,3.913,11111222 
TCOON,ioos:station:TCOON:057:1,2019-09-05T17:24:00Z,28.4460,-96.3961,3.859,11111222 
TCOON,ioos:station:TCOON:057:1,2019-09-05T18:24:00Z,28.4460,-96.3961,3.828,11111222 
TCOON,ioos:station:TCOON:057:1,2019-09-05T19:24:00Z,28.4460,-96.3961,3.779,11111222 
TCOON,ioos:station:TCOON:057:1,2019-09-05T20:24:00Z,28.4460,-96.3961,3.755,11111222 
TCOON,ioos:station:TCOON:057:1,2019-09-05T21:24:00Z,28.4460,-96.3961,3.752,11111222 
TCOON,ioos:station:TCOON:057:1,2019-09-05T22:24:00Z,28.4460,-96.3961,3.721,11111222 
TCOON,ioos:station:TCOON:057:1,2019-09-05T23:24:00Z,28.4460,-96.3961,3.708,11111222 
TCOON,ioos:station:TCOON:057:1,2019-09-06T00:24:00Z,28.4460,-96.3961,3.683,11111222 
TCOON,ioos:station:TCOON:057:1,2019-09-06T01:24:00Z,28.4460,-96.3961,3.677,11111222 
TCOON,ioos:station:TCOON:057:1,2019-09-06T02:24:00Z,28.4460,-96.3961,3.686,11111222 
TCOON,ioos:station:TCOON:057:1,2019-09-06T03:24:00Z,28.4460,-96.3961,3.714,11111222 
TCOON,ioos:station:TCOON:057:1,2019-09-06T04:24:00Z,28.4460,-96.3961,3.733,11111222 
TCOON,ioos:station:TCOON:057:1,2019-09-06T06:42:00Z,28.4460,-96.3961,3.777,11111222 
TCOON,ioos:station:TCOON:057:1,2019-09-06T07:36:00Z,28.4460,-96.3961,3.795,11111222 
TCOON,ioos:station:TCOON:057:1,2019-09-06T08:24:00Z,28.4460,-96.3961,3.802,11111222 
TCOON,ioos:station:TCOON:057:1,2019-09-06T09:24:00Z,28.4460,-96.3961,3.833,11111222 
TCOON,ioos:station:TCOON:057:1,2019-09-06T10:24:00Z,28.4460,-96.3961,3.825,11111222 
TCOON,ioos:station:TCOON:057:1,2019-09-06T11:24:00Z,28.4460,-96.3961,3.824,11111222 
TCOON,ioos:station:TCOON:057:1,2019-09-06T12:24:00Z,28.4460,-96.3961,3.818,11111222 
TCOON,ioos:station:TCOON:057:1,2019-09-06T13:24:00Z,28.4460,-96.3961,3.814,11111222 
TCOON,ioos:station:TCOON:057:1,2019-09-06T14:24:00Z,28.4460,-96.3961,3.795,11111222 
TCOON,ioos:station:TCOON:057:1,2019-09-06T15:24:00Z,28.4460,-96.3961,3.75,11111222 
TCOON,ioos:station:TCOON:057:1,2019-09-06T16:24:00Z,28.4460,-96.3961,3.726,11111222 
TCOON,ioos:station:TCOON:057:1,2019-09-06T17:24:00Z,28.4460,-96.3961,3.681,11111222 
TCOON,ioos:station:TCOON:057:1,2019-09-06T18:24:00Z,28.4460,-96.3961,3.647,11111222 
TCOON,ioos:station:TCOON:057:1,2019-09-06T19:24:00Z,28.4460,-96.3961,3.628,11111222 
TCOON,ioos:station:TCOON:057:1,2019-09-06T20:24:00Z,28.4460,-96.3961,3.586,11111222 
TCOON,ioos:station:TCOON:057:1,2019-09-06T21:24:00Z,28.4460,-96.3961,3.57,11111222 
TCOON,ioos:station:TCOON:057:1,2019-09-06T22:24:00Z,28.4460,-96.3961,3.544,11111222 
TCOON,ioos:station:TCOON:057:1,2019-09-06T23:24:00Z,28.4460,-96.3961,3.537,11111222 
TCOON,ioos:station:TCOON:057:1,2019-09-07T00:24:00Z,28.4460,-96.3961,3.519,11111222 
TCOON,ioos:station:TCOON:057:1,2019-09-07T01:24:00Z,28.4460,-96.3961,3.535,11111222 
TCOON,ioos:station:TCOON:057:1,2019-09-07T02:24:00Z,28.4460,-96.3961,3.576,11111222 
TCOON,ioos:station:TCOON:057:1,2019-09-07T03:24:00Z,28.4460,-96.3961,3.577,11111222 
TCOON,ioos:station:TCOON:057:1,2019-09-07T04:24:00Z,28.4460,-96.3961,3.629,11111222 
TCOON,ioos:station:TCOON:057:1,2019-09-07T05:24:00Z,28.4460,-96.3961,3.668,11111222 
TCOON,ioos:station:TCOON:057:1,2019-09-07T06:24:00Z,28.4460,-96.3961,3.714,11111222 
TCOON,ioos:station:TCOON:057:1,2019-09-07T07:24:00Z,28.4460,-96.3961,3.734,11111222 
TCOON,ioos:station:TCOON:057:1,2019-09-07T08:24:00Z,28.4460,-96.3961,3.772,11111222 
TCOON,ioos:station:TCOON:057:1,2019-09-07T09:24:00Z,28.4460,-96.3961,3.767,11111222 
TCOON,ioos:station:TCOON:057:1,2019-09-07T10:24:00Z,28.4460,-96.3961,3.809,11111222 
TCOON,ioos:station:TCOON:057:1,2019-09-07T11:24:00Z,28.4460,-96.3961,3.82,11111222 
TCOON,ioos:station:TCOON:057:1,2019-09-07T12:24:00Z,28.4460,-96.3961,3.814,11111222 
TCOON,ioos:station:TCOON:057:1,2019-09-07T13:24:00Z,28.4460,-96.3961,3.805,11111222 
TCOON,ioos:station:TCOON:057:1,2019-09-07T14:24:00Z,28.4460,-96.3961,3.785,11111222 
TCOON,ioos:station:TCOON:057:1,2019-09-07T15:24:00Z,28.4460,-96.3961,3.783,11111222 
TCOON,ioos:station:TCOON:057:1,2019-09-07T16:24:00Z,28.4460,-96.3961,3.741,11111222 
TCOON,ioos:station:TCOON:057:1,2019-09-07T17:24:00Z,28.4460,-96.3961,3.712,11111222 
TCOON,ioos:station:TCOON:057:1,2019-09-07T18:24:00Z,28.4460,-96.3961,3.664,11111222 
TCOON,ioos:station:TCOON:057:1,2019-09-07T19:24:00Z,28.4460,-96.3961,3.639,11111222 
TCOON,ioos:station:TCOON:057:1,2019-09-07T20:24:00Z,28.4460,-96.3961,3.607,11111222 
TCOON,ioos:station:TCOON:057:1,2019-09-07T21:24:00Z,28.4460,-96.3961,3.556,11111222 
TCOON,ioos:station:TCOON:057:1,2019-09-07T22:24:00Z,28.4460,-96.3961,3.554,11111222 
TCOON,ioos:station:TCOON:057:1,2019-09-07T23:24:00Z,28.4460,-96.3961,3.516,11111222 
TCOON,ioos:station:TCOON:057:1,2019-09-08T00:24:00Z,28.4460,-96.3961,3.49,11111222 
TCOON,ioos:station:TCOON:057:1,2019-09-08T01:24:00Z,28.4460,-96.3961,3.477,11111222 
TCOON,ioos:station:TCOON:057:1,2019-09-08T02:24:00Z,28.4460,-96.3961,3.497,11111222 
TCOON,ioos:station:TCOON:057:1,2019-09-08T03:24:00Z,28.4460,-96.3961,3.536,11111222 
TCOON,ioos:station:TCOON:057:1,2019-09-08T04:24:00Z,28.4460,-96.3961,3.556,11111222 
TCOON,ioos:station:TCOON:057:1,2019-09-08T05:24:00Z,28.4460,-96.3961,3.612,11111222 
TCOON,ioos:station:TCOON:057:1,2019-09-08T06:24:00Z,28.4460,-96.3961,3.637,11111222 
TCOON,ioos:station:TCOON:057:1,2019-09-08T07:24:00Z,28.4460,-96.3961,3.686,11111222 
TCOON,ioos:station:TCOON:057:1,2019-09-08T08:24:00Z,28.4460,-96.3961,3.71,11111222 
TCOON,ioos:station:TCOON:057:1,2019-09-08T09:24:00Z,28.4460,-96.3961,3.755,11111222 
TCOON,ioos:station:TCOON:057:1,2019-09-08T10:24:00Z,28.4460,-96.3961,3.774,11111222 
TCOON,ioos:station:TCOON:057:1,2019-09-08T11:24:00Z,28.4460,-96.3961,3.79,11111222 
TCOON,ioos:station:TCOON:057:1,2019-09-08T12:24:00Z,28.4460,-96.3961,3.814,11111222 
TCOON,ioos:station:TCOON:057:1,2019-09-08T13:24:00Z,28.4460,-96.3961,3.812,11111222 
TCOON,ioos:station:TCOON:057:1,2019-09-08T14:24:00Z,28.4460,-96.3961,3.822,11111222 
TCOON,ioos:station:TCOON:057:1,2019-09-08T15:24:00Z,28.4460,-96.3961,3.807,11111222 
TCOON,ioos:station:TCOON:057:1,2019-09-08T16:24:00Z,28.4460,-96.3961,3.79,11111222 
TCOON,ioos:station:TCOON:057:1,2019-09-08T17:24:00Z,28.4460,-96.3961,3.763,11111222 
TCOON,ioos:station:TCOON:057:1,2019-09-08T18:24:00Z,28.4460,-96.3961,3.744,11111222 
TCOON,ioos:station:TCOON:057:1,2019-09-08T19:24:00Z,28.4460,-96.3961,3.709,11111222 
TCOON,ioos:station:TCOON:057:1,2019-09-08T20:24:00Z,28.4460,-96.3961,3.682,11111222 
TCOON,ioos:station:TCOON:057:1,2019-09-08T21:24:00Z,28.4460,-96.3961,3.665,11111222 
TCOON,ioos:station:TCOON:057:1,2019-09-08T22:24:00Z,28.4460,-96.3961,3.63,11111222 
TCOON,ioos:station:TCOON:057:1,2019-09-08T23:24:00Z,28.4460,-96.3961,3.606,11111222 
TCOON,ioos:station:TCOON:057:1,2019-09-09T00:24:00Z,28.4460,-96.3961,3.573,11111222 
TCOON,ioos:station:TCOON:057:1,2019-09-09T01:24:00Z,28.4460,-96.3961,3.569,11111222 
TCOON,ioos:station:TCOON:057:1,2019-09-09T02:24:00Z,28.4460,-96.3961,3.56,11111222 
TCOON,ioos:station:TCOON:057:1,2019-09-09T03:24:00Z,28.4460,-96.3961,3.568,11111222 
TCOON,ioos:station:TCOON:057:1,2019-09-09T04:24:00Z,28.4460,-96.3961,3.598,11111222 
TCOON,ioos:station:TCOON:057:1,2019-09-09T05:24:00Z,28.4460,-96.3961,3.619,11111222 
TCOON,ioos:station:TCOON:057:1,2019-09-09T06:24:00Z,28.4460,-96.3961,3.659,11111222 
TCOON,ioos:station:TCOON:057:1,2019-09-09T07:24:00Z,28.4460,-96.3961,3.694,11111222 
TCOON,ioos:station:TCOON:057:1,2019-09-09T08:24:00Z,28.4460,-96.3961,3.732,11111222 
TCOON,ioos:station:TCOON:057:1,2019-09-09T09:24:00Z,28.4460,-96.3961,3.758,11111222 
TCOON,ioos:station:TCOON:057:1,2019-09-09T10:24:00Z,28.4460,-96.3961,3.773,11111222 
TCOON,ioos:station:TCOON:057:1,2019-09-09T11:24:00Z,28.4460,-96.3961,3.8,11111222 
TCOON,ioos:station:TCOON:057:1,2019-09-09T12:24:00Z,28.4460,-96.3961,3.824,11111222 
TCOON,ioos:station:TCOON:057:1,2019-09-09T13:24:00Z,28.4460,-96.3961,3.842,11111222 
TCOON,ioos:station:TCOON:057:1,2019-09-09T14:36:00Z,28.4460,-96.3961,3.839,11111222 
TCOON,ioos:station:TCOON:057:1,2019-09-09T15:24:00Z,28.4460,-96.3961,3.813,11111222 
TCOON,ioos:station:TCOON:057:1,2019-09-09T16:24:00Z,28.4460,-96.3961,3.806,11111222 
TCOON,ioos:station:TCOON:057:1,2019-09-09T17:24:00Z,28.4460,-96.3961,3.799,11111222 
TCOON,ioos:station:TCOON:057:1,2019-09-09T21:24:00Z,28.4460,-96.3961,3.727,11111222 
TCOON,ioos:station:TCOON:057:1,2019-09-09T22:24:00Z,28.4460,-96.3961,3.684,11111222 
TCOON,ioos:station:TCOON:057:1,2019-09-09T23:24:00Z,28.4460,-96.3961,3.681,11111222 
TCOON,ioos:station:TCOON:057:1,2019-09-10T00:24:00Z,28.4460,-96.3961,3.618,11111222 
TCOON,ioos:station:TCOON:057:1,2019-09-10T01:24:00Z,28.4460,-96.3961,3.635,11111222 
TCOON,ioos:station:TCOON:057:1,2019-09-10T02:24:00Z,28.4460,-96.3961,3.604,11111222 
TCOON,ioos:station:TCOON:057:1,2019-09-10T03:24:00Z,28.4460,-96.3961,3.632,11111222 
TCOON,ioos:station:TCOON:057:1,2019-09-10T04:24:00Z,28.4460,-96.3961,3.655,11111222 
TCOON,ioos:station:TCOON:057:1,2019-09-10T05:36:00Z,28.4460,-96.3961,3.683,11111222 
TCOON,ioos:station:TCOON:057:1,2019-09-10T06:24:00Z,28.4460,-96.3961,3.714,11111222 
TCOON,ioos:station:TCOON:057:1,2019-09-10T07:24:00Z,28.4460,-96.3961,3.737,11111222 
TCOON,ioos:station:TCOON:057:1,2019-09-10T08:24:00Z,28.4460,-96.3961,3.772,11111222 
TCOON,ioos:station:TCOON:057:1,2019-09-10T09:24:00Z,28.4460,-96.3961,3.821,11111222 
TCOON,ioos:station:TCOON:057:1,2019-09-10T10:24:00Z,28.4460,-96.3961,3.846,11111222 
TCOON,ioos:station:TCOON:057:1,2019-09-10T11:24:00Z,28.4460,-96.3961,3.852,11111222 
TCOON,ioos:station:TCOON:057:1,2019-09-10T12:24:00Z,28.4460,-96.3961,3.874,11111222 
TCOON,ioos:station:TCOON:057:1,2019-09-10T13:24:00Z,28.4460,-96.3961,3.895,11111222 
TCOON,ioos:station:TCOON:057:1,2019-09-10T14:24:00Z,28.4460,-96.3961,3.887,11111222 
TCOON,ioos:station:TCOON:057:1,2019-09-10T15:24:00Z,28.4460,-96.3961,3.9,11111222 
TCOON,ioos:station:TCOON:057:1,2019-09-10T16:24:00Z,28.4460,-96.3961,3.884,11111222 
TCOON,ioos:station:TCOON:057:1,2019-09-10T17:24:00Z,28.4460,-96.3961,3.863,11111222 
TCOON,ioos:station:TCOON:057:1,2019-09-10T18:24:00Z,28.4460,-96.3961,3.856,11111222 
TCOON,ioos:station:TCOON:057:1,2019-09-10T19:24:00Z,28.4460,-96.3961,3.839,11111222 
TCOON,ioos:station:TCOON:057:1,2019-09-10T20:24:00Z,28.4460,-96.3961,3.81,11111222 
TCOON,ioos:station:TCOON:057:1,2019-09-10T21:24:00Z,28.4460,-96.3961,3.789,11111222 
TCOON,ioos:station:TCOON:057:1,2019-09-10T22:24:00Z,28.4460,-96.3961,3.767,11111222 
TCOON,ioos:station:TCOON:057:1,2019-09-10T23:24:00Z,28.4460,-96.3961,3.728,11111222 
TCOON,ioos:station:TCOON:057:1,2019-09-11T00:24:00Z,28.4460,-96.3961,3.71,11111222 
TCOON,ioos:station:TCOON:057:1,2019-09-11T01:24:00Z,28.4460,-96.3961,3.7,11111222 
TCOON,ioos:station:TCOON:057:1,2019-09-11T02:24:00Z,28.4460,-96.3961,3.671,11111222 
TCOON,ioos:station:TCOON:057:1,2019-09-11T03:24:00Z,28.4460,-96.3961,3.671,11111222 
TCOON,ioos:station:TCOON:057:1,2019-09-11T04:24:00Z,28.4460,-96.3961,3.671,11111222 
TCOON,ioos:station:TCOON:057:1,2019-09-11T05:36:00Z,28.4460,-96.3961,3.676,11111222 
TCOON,ioos:station:TCOON:057:1,2019-09-11T06:24:00Z,28.4460,-96.3961,3.707,11111222 
TCOON,ioos:station:TCOON:057:1,2019-09-11T07:24:00Z,28.4460,-96.3961,3.741,11111222 
TCOON,ioos:station:TCOON:057:1,2019-09-11T08:24:00Z,28.4460,-96.3961,3.776,11111222 
TCOON,ioos:station:TCOON:057:1,2019-09-11T09:24:00Z,28.4460,-96.3961,3.803,11111222 
TCOON,ioos:station:TCOON:057:1,2019-09-11T10:24:00Z,28.4460,-96.3961,3.825,11111222 
TCOON,ioos:station:TCOON:057:1,2019-09-11T11:24:00Z,28.4460,-96.3961,3.865,11111222 
TCOON,ioos:station:TCOON:057:1,2019-09-11T12:24:00Z,28.4460,-96.3961,3.894,11111222 
TCOON,ioos:station:TCOON:057:1,2019-09-11T13:24:00Z,28.4460,-96.3961,3.902,11111222 
TCOON,ioos:station:TCOON:057:1,2019-09-11T14:24:00Z,28.4460,-96.3961,3.905,11111222 
TCOON,ioos:station:TCOON:057:1,2019-09-11T15:30:00Z,28.4460,-96.3961,3.897,11111222 
TCOON,ioos:station:TCOON:057:1,2019-09-11T16:24:00Z,28.4460,-96.3961,3.903,11111222 
TCOON,ioos:station:TCOON:057:1,2019-09-11T17:24:00Z,28.4460,-96.3961,3.922,11111222 
TCOON,ioos:station:TCOON:057:1,2019-09-11T18:24:00Z,28.4460,-96.3961,3.872,11111222 
TCOON,ioos:station:TCOON:057:1,2019-09-11T19:24:00Z,28.4460,-96.3961,3.885,11111222 
TCOON,ioos:station:TCOON:057:1,2019-09-11T20:24:00Z,28.4460,-96.3961,3.878,11111222 
TCOON,ioos:station:TCOON:057:1,2019-09-11T21:24:00Z,28.4460,-96.3961,3.821,11111222 
TCOON,ioos:station:TCOON:057:1,2019-09-11T22:24:00Z,28.4460,-96.3961,3.827,11111222 
TCOON,ioos:station:TCOON:057:1,2019-09-11T23:24:00Z,28.4460,-96.3961,3.809,11111222 
TCOON,ioos:station:TCOON:057:1,2019-09-12T00:24:00Z,28.4460,-96.3961,3.784,11111222 
TCOON,ioos:station:TCOON:057:1,2019-09-12T01:24:00Z,28.4460,-96.3961,3.779,11111222 
TCOON,ioos:station:TCOON:057:1,2019-09-12T02:24:00Z,28.4460,-96.3961,3.747,11111222 
TCOON,ioos:station:TCOON:057:1,2019-09-12T03:24:00Z,28.4460,-96.3961,3.741,11111222 
TCOON,ioos:station:TCOON:057:1,2019-09-12T04:24:00Z,28.4460,-96.3961,3.75,11111222 
TCOON,ioos:station:TCOON:057:1,2019-09-12T05:24:00Z,28.4460,-96.3961,3.745,11111222 
TCOON,ioos:station:TCOON:057:1,2019-09-12T06:24:00Z,28.4460,-96.3961,3.757,11111222 
TCOON,ioos:station:TCOON:057:1,2019-09-12T07:24:00Z,28.4460,-96.3961,3.778,11111222 
TCOON,ioos:station:TCOON:057:1,2019-09-12T08:24:00Z,28.4460,-96.3961,3.815,11111222 
TCOON,ioos:station:TCOON:057:1,2019-09-12T09:24:00Z,28.4460,-96.3961,3.836,11111222 
TCOON,ioos:station:TCOON:057:1,2019-09-12T10:24:00Z,28.4460,-96.3961,3.877,11111222 
TCOON,ioos:station:TCOON:057:1,2019-09-12T11:24:00Z,28.4460,-96.3961,3.908,11111222 
TCOON,ioos:station:TCOON:057:1,2019-09-12T12:24:00Z,28.4460,-96.3961,3.911,11111222 
TCOON,ioos:station:TCOON:057:1,2019-09-12T13:24:00Z,28.4460,-96.3961,3.95,11111222 
TCOON,ioos:station:TCOON:057:1,2019-09-12T14:24:00Z,28.4460,-96.3961,3.955,11111222 
TCOON,ioos:station:TCOON:057:1,2019-09-12T15:24:00Z,28.4460,-96.3961,3.989,11111222 
TCOON,ioos:station:TCOON:057:1,2019-09-13T19:24:00Z,28.4460,-96.3961,3.965,11111222 
TCOON,ioos:station:TCOON:057:1,2019-09-13T20:24:00Z,28.4460,-96.3961,3.94,11111222 
TCOON,ioos:station:TCOON:057:1,2019-09-13T21:24:00Z,28.4460,-96.3961,3.949,11111222 
TCOON,ioos:station:TCOON:057:1,2019-09-13T22:24:00Z,28.4460,-96.3961,3.923,11111222 
TCOON,ioos:station:TCOON:057:1,2019-09-13T23:24:00Z,28.4460,-96.3961,3.911,11111222 
TCOON,ioos:station:TCOON:057:1,2019-09-14T00:24:00Z,28.4460,-96.3961,3.898,11111222 
TCOON,ioos:station:TCOON:057:1,2019-09-14T01:24:00Z,28.4460,-96.3961,3.876,11111222 